Theta_e
335 327 328 329 331 331 330 330 330 330 332 332 332 333 334 334 334 334 332 330 327 324 324 328 332 332 329 326 323 320 322 325 327 329 332 333 333 332 330 326 321 316 313 312 312 314 320 324 326 329 330 328 328 327 325 328 327 325 327 328 329 331 331 329 327 326 327 329 330 330 332 333 333 332 330 329 329 327 327 326 325 324 325 326 324
334 327 328 330 331 331 330 329 329 330 331 332 332 333 334 334 334 333 330 328 326 325 327 330 331 328 324 318 316 314 314 317 318 321 324 325 324 323 320 317 314 313 312 312 312 312 316 323 328 329 328 326 326 326 326 329 330 331 330 330 331 331 331 329 328 328 328 327 327 329 331 332 332 330 328 328 327 326 326 325 322 320 323 325 323
332 327 329 330 330 332 330 329 329 332 332 331 333 334 334 334 333 330 329 327 326 330 331 331 329 324 320 317 316 315 315 315 315 316 318 318 316 315 314 315 315 315 315 316 317 315 312 315 319 322 326 326 324 325 326 327 330 331 330 330 330 329 327 325 324 324 325 326 326 327 329 330 329 328 328 327 326 324 322 322 321 320 323 323 321
331 327 328 329 331 331 330 329 330 332 332 332 333 334 334 332 330 328 330 328 329 332 332 330 328 324 320 320 320 318 317 317 317 319 320 318 314 315 318 320 322 323 324 326 325 322 317 312 312 319 327 327 322 323 325 326 328 328 327 327 326 326 326 325 324 323 324 322 321 322 325 326 327 327 327 327 324 322 322 321 320 320 322 320 318
329 327 328 329 331 330 329 329 330 331 331 331 332 333 332 331 329 329 331 331 332 332 331 331 330 327 323 321 321 320 319 318 319 320 319 317 317 321 325 327 330 330 330 329 329 327 322 314 313 322 329 327 324 326 328 329 328 328 328 328 328 329 330 329 329 328 329 326 321 318 319 320 323 324 324 323 319 321 325 324 322 322 322 320 318
328 328 329 329 330 330 328 328 329 330 330 330 331 332 331 331 331 331 332 333 334 333 332 332 332 329 324 319 319 320 319 318 319 319 318 319 324 328 331 332 332 331 330 330 329 328 324 315 313 322 328 327 327 328 330 330 330 331 331 331 332 332 332 331 331 331 331 331 327 324 321 318 320 322 321 321 321 322 324 324 324 324 322 321 320
329 330 329 328 329 329 328 327 329 330 329 329 330 331 332 332 332 331 330 333 335 333 333 334 332 327 321 318 319 320 319 320 322 320 319 321 327 331 333 334 332 331 331 330 329 327 325 315 313 321 326 328 329 330 331 332 332 332 333 333 333 332 333 332 332 332 332 332 331 330 325 318 318 321 323 323 325 326 325 325 323 322 322 322 321
330 330 329 328 328 328 327 327 328 329 329 330 331 332 332 333 333 331 330 333 334 333 335 334 329 323 319 318 319 320 319 320 323 322 323 325 329 332 332 333 333 333 332 331 329 326 324 315 312 318 323 329 331 331 332 332 333 333 333 333 333 333 333 333 333 333 333 332 332 330 323 318 317 318 323 323 325 326 326 324 319 318 321 321 320
330 330 329 328 328 327 327 326 328 329 330 330 331 331 332 333 333 333 333 333 334 335 336 332 325 321 320 319 320 321 320 320 322 324 328 329 331 333 333 333 333 332 330 329 328 324 322 315 311 316 322 329 331 331 332 332 333 333 333 333 333 333 333 333 333 333 332 333 332 329 324 323 320 316 318 321 324 324 322 320 315 316 319 318 316
329 329 329 330 329 327 326 325 327 330 330 330 331 331 332 334 334 334 333 332 334 335 333 328 323 322 322 320 320 322 324 323 323 327 330 330 331 333 333 333 331 330 329 329 328 323 321 315 311 314 321 328 330 331 331 331 332 332 332 333 333 333 333 333 332 332 332 332 332 329 327 326 323 318 315 318 320 319 317 316 315 315 316 318 319
329 329 330 330 328 325 324 325 328 330 330 330 331 331 332 333 332 332 331 332 334 334 328 322 322 324 323 322 321 322 324 325 326 328 329 331 332 331 331 330 329 329 329 329 327 322 319 316 311 314 320 327 329 330 330 330 331 331 331 332 332 333 333 333 332 331 331 331 330 329 328 326 324 321 316 315 314 314 315 315 316 314 314 318 321
330 330 331 331 327 326 326 327 329 329 329 330 330 330 330 331 331 330 331 333 333 330 323 318 321 324 325 324 322 321 323 325 326 327 328 331 331 328 327 326 325 326 326 325 323 319 317 315 312 314 320 325 328 328 329 329 330 330 331 331 331 332 332 332 331 329 329 329 329 328 327 326 324 322 317 313 311 313 315 315 315 313 315 318 319
330 331 331 330 327 327 328 329 330 329 330 331 330 329 328 329 330 330 331 332 331 325 319 318 322 324 325 325 324 322 322 322 324 325 327 329 329 325 324 324 324 324 324 322 321 320 318 315 312 314 321 324 326 328 328 329 329 330 330 330 330 330 330 331 330 329 329 328 328 328 327 326 324 322 318 314 311 313 313 315 315 312 316 320 317
331 330 329 327 327 329 329 329 330 330 331 331 330 329 327 328 329 329 330 331 329 324 320 320 321 323 323 324 324 324 323 322 322 325 326 326 326 323 323 323 324 325 324 322 322 322 321 318 314 313 319 324 325 327 327 328 328 329 329 329 328 328 328 328 329 329 330 329 328 327 327 326 324 320 318 315 312 312 313 314 315 313 315 317 316
330 329 327 326 328 331 331 330 330 331 331 331 330 329 328 329 329 328 329 330 329 326 324 322 320 321 321 322 323 324 324 323 322 323 324 324 323 322 322 322 323 324 324 323 323 324 324 322 319 313 316 322 325 326 327 328 327 328 328 328 328 328 327 327 328 329 329 329 328 327 327 327 322 318 316 316 314 312 313 314 314 314 314 313 314
329 327 326 328 329 330 330 330 330 330 331 330 328 328 329 329 329 328 329 329 329 329 328 326 323 322 322 323 323 323 323 324 323 322 322 321 322 321 322 322 323 324 324 324 324 325 325 324 323 318 314 317 323 326 326 326 327 327 327 327 327 328 327 327 327 328 328 328 328 327 327 326 322 318 314 314 315 313 313 313 314 313 312 311 312
327 325 326 328 328 328 329 330 330 330 330 329 328 329 329 329 328 329 330 329 329 330 329 329 328 328 327 327 327 325 323 323 324 324 323 321 321 321 322 322 322 323 324 324 324 324 325 325 325 323 317 314 318 323 326 326 326 326 325 326 326 327 327 326 327 327 328 328 328 327 325 322 320 319 315 313 314 315 313 312 314 314 312 310 312
327 327 327 328 328 328 328 328 328 329 328 328 328 329 329 328 328 329 328 327 328 329 329 330 330 331 331 331 331 329 327 325 324 324 324 324 322 321 321 322 322 323 323 324 324 324 325 325 325 324 320 315 313 316 322 325 324 324 324 325 326 327 327 326 327 327 327 327 326 325 324 322 321 321 316 312 312 314 314 312 313 313 312 311 314
329 329 329 329 329 329 328 326 327 328 328 327 327 328 328 328 329 328 328 327 328 329 329 330 331 331 331 331 331 331 330 329 328 325 324 324 324 324 322 321 321 322 323 323 324 324 324 324 325 325 321 317 314 313 317 321 323 324 325 325 326 327 327 326 326 325 326 326 325 325 325 324 324 323 317 311 311 313 314 313 313 312 312 312 313
330 328 327 327 328 328 326 326 328 329 327 327 328 329 328 328 328 327 328 329 330 330 330 331 330 329 329 330 330 330 329 329 329 328 325 323 323 325 325 323 322 321 322 323 323 324 324 324 325 324 321 318 317 316 317 321 324 325 326 326 326 326 326 326 325 324 325 325 325 326 325 326 327 323 315 309 310 313 313 313 314 313 313 312 312
329 326 325 325 326 327 327 327 329 328 326 327 329 329 329 329 327 326 329 331 331 330 330 330 328 327 327 328 329 328 328 328 328 328 329 326 323 322 324 325 325 323 321 322 323 324 324 324 324 324 323 323 323 322 321 322 324 325 327 328 327 327 327 328 328 327 326 326 326 326 326 328 327 322 313 307 310 313 314 313 314 314 313 313 312
328 326 326 326 327 327 326 326 327 327 326 328 329 329 328 328 328 328 329 330 329 329 329 328 327 325 324 326 327 327 327 328 327 327 327 327 325 323 322 322 325 326 323 322 322 323 324 324 324 324 325 326 327 327 326 326 326 326 327 328 328 328 329 329 328 328 327 328 328 328 329 327 325 321 312 306 309 312 314 314 314 314 313 313 313
327 326 326 325 326 326 325 325 326 327 328 329 328 327 327 326 327 327 327 327 326 326 325 325 325 325 324 325 326 325 325 327 327 327 326 326 327 326 323 320 321 324 325 323 322 323 324 324 325 324 326 328 328 329 329 329 329 329 328 328 328 328 329 329 328 328 329 330 329 329 329 325 324 322 314 307 307 312 314 314 314 314 314 314 314
324 324 323 323 325 326 326 326 326 327 329 329 327 327 327 326 326 326 326 325 324 324 323 323 324 326 325 324 325 325 325 326 327 329 328 327 328 329 328 325 323 324 324 325 324 324 325 325 325 325 326 328 329 330 330 331 330 330 330 330 329 328 329 329 328 328 329 330 330 330 328 325 324 323 319 312 307 310 314 314 313 314 314 314 314
323 323 323 323 324 325 327 327 327 326 326 326 326 326 326 326 326 325 326 326 324 324 324 324 324 325 324 324 325 325 324 325 327 328 328 327 328 329 329 328 327 327 326 326 325 325 326 327 328 327 327 328 330 331 332 332 332 331 331 331 330 329 328 329 328 328 329 329 330 330 328 325 325 324 323 319 312 310 312 313 313 313 313 312 314
322 323 323 322 323 324 325 325 325 326 325 324 325 325 325 326 326 325 325 324 324 324 324 325 325 325 325 326 326 326 326 326 327 328 329 330 329 330 331 330 328 329 328 327 327 327 327 328 329 329 329 330 332 333 332 332 332 332 332 332 332 330 330 329 329 329 330 330 331 331 329 326 325 324 324 323 320 315 312 311 311 311 310 310 311
323 323 323 323 322 321 322 323 325 326 325 324 324 325 325 324 324 323 322 322 323 323 323 324 326 326 325 326 327 327 328 328 330 331 332 333 332 332 332 332 332 331 329 328 327 328 329 329 329 330 331 331 332 333 333 333 332 332 332 332 333 332 332 332 332 332 332 332 333 332 332 330 327 326 325 325 323 321 318 315 314 312 311 311 311
325 324 324 324 321 320 322 323 324 325 325 324 324 324 323 323 323 322 323 323 323 323 323 324 325 324 323 324 326 328 329 330 332 332 333 333 332 332 332 333 333 332 332 331 329 327 327 328 329 331 332 332 333 332 332 333 332 331 333 333 333 333 333 333 334 334 334 333 333 332 333 333 330 329 329 327 324 323 322 320 319 319 318 317 317
326 325 325 325 323 322 323 323 323 325 325 325 324 323 322 322 322 322 323 323 324 325 324 324 325 324 323 325 325 326 328 330 332 333 333 333 332 333 333 333 332 331 332 332 332 330 328 328 329 331 332 332 333 332 332 332 332 331 332 333 333 333 333 333 333 334 334 334 333 332 332 333 333 332 331 329 326 324 324 323 322 321 321 321 320
326 325 326 326 325 324 323 322 322 324 324 325 325 323 322 322 321 321 320 320 322 325 324 323 323 324 326 329 327 327 328 329 332 332 332 333 333 333 334 333 333 332 332 332 332 333 332 331 332 333 333 333 333 333 333 333 332 332 332 333 334 333 333 333 333 333 333 333 333 332 332 333 333 333 332 331 329 326 325 324 324 323 322 322 322
325 324 325 325 324 322 321 322 323 324 324 324 324 323 323 322 322 322 320 321 323 326 328 327 326 327 327 328 328 328 328 329 330 330 331 333 333 333 333 333 333 333 333 333 332 333 333 333 334 333 333 333 333 333 333 333 333 333 333 333 333 333 333 333 333 333 332 332 332 332 332 333 333 333 332 331 330 329 328 327 326 326 326 325 325
324 324 324 323 321 321 322 323 324 324 324 324 323 324 325 326 327 327 325 326 327 328 327 327 327 325 323 323 324 327 328 328 329 329 329 332 333 333 334 333 332 332 333 333 332 333 333 333 333 333 333 333 333 333 334 334 333 333 333 333 333 333 333 333 333 332 332 332 332 333 333 333 334 334 333 332 332 332 332 330 328 327 328 328 328
324 324 323 321 322 321 322 322 323 323 323 324 324 326 327 329 330 330 330 329 329 328 323 324 326 323 320 319 319 322 324 324 325 327 328 330 333 334 334 333 332 331 332 332 332 333 332 332 333 333 333 333 332 333 333 333 333 333 334 333 333 333 333 333 333 332 332 332 332 333 333 334 334 334 334 333 332 333 334 333 331 329 329 329 329
324 324 322 321 321 321 320 319 319 320 320 322 324 326 327 328 330 330 329 328 328 326 320 322 325 324 323 322 320 320 319 318 318 319 321 325 331 334 333 333 332 330 330 332 332 332 333 332 333 333 333 332 333 333 333 333 333 332 332 332 333 333 332 333 333 332 332 332 332 332 332 333 333 333 333 333 332 333 334 335 334 332 331 330 330
324 324 323 322 320 319 318 317 316 317 317 320 323 324 323 323 326 328 327 326 325 323 319 320 322 323 325 327 327 326 322 320 318 317 316 315 320 328 333 332 331 330 330 331 331 331 332 332 332 333 332 332 332 333 333 333 333 332 332 331 332 332 333 333 333 333 334 333 333 332 332 332 333 333 333 333 333 333 333 334 334 333 332 331 331
323 323 323 323 321 319 318 316 316 315 315 318 320 321 319 317 321 325 326 325 323 321 318 318 320 322 324 325 327 326 324 322 321 318 315 312 309 317 328 332 330 329 330 331 331 330 330 330 330 330 330 331 330 332 332 333 333 333 332 331 332 332 332 333 333 334 334 334 334 333 333 333 333 333 333 332 332 332 332 332 333 333 333 331 330
322 318 319 321 322 321 320 319 318 317 317 318 318 317 314 311 315 322 324 323 322 321 320 319 321 323 324 325 325 325 323 320 318 315 313 313 309 310 320 329 330 329 330 330 331 330 329 327 327 327 327 328 329 329 331 332 332 332 332 331 332 332 332 332 333 333 333 333 334 334 334 333 333 333 332 332 331 332 332 332 331 332 332 331 331
320 315 314 315 316 317 317 317 316 316 316 316 314 312 310 310 311 316 321 321 321 321 321 321 322 324 325 324 323 321 319 318 317 317 317 317 313 309 314 323 328 329 329 330 330 330 328 326 327 326 325 326 327 328 328 330 331 332 332 332 332 332 332 332 332 332 333 333 333 334 333 333 332 333 332 332 332 332 332 331 331 330 331 331 331
318 314 312 311 310 311 310 310 309 309 310 311 312 312 313 313 314 315 317 320 320 319 320 321 321 321 320 318 317 317 318 319 321 322 323 321 316 311 311 314 321 326 328 328 328 328 327 326 327 326 326 327 327 327 326 327 328 329 330 331 331 331 331 331 331 331 332 333 333 333 332 333 333 333 333 333 332 332 332 331 331 330 330 331 331
318 314 311 310 309 308 306 306 306 307 309 312 314 315 316 317 318 319 321 322 322 320 320 320 319 317 317 318 319 320 321 322 323 324 325 323 321 318 315 313 314 316 318 320 322 324 324 324 327 327 326 326 326 325 324 324 325 325 326 327 327 328 329 329 329 330 331 332 333 332 332 332 333 332 332 332 332 331 332 331 331 330 331 331 331
322 318 311 309 308 306 306 307 310 312 313 315 316 318 319 319 319 321 325 325 323 323 322 319 318 318 319 321 322 322 323 323 324 324 325 325 324 321 319 319 318 317 317 317 320 322 323 324 325 326 325 325 324 323 323 323 321 320 322 323 324 326 328 329 329 329 331 332 332 331 331 331 331 331 331 331 331 331 332 331 330 330 330 330 330
324 319 313 310 308 306 309 312 314 315 316 318 318 319 320 320 319 321 324 325 324 324 322 321 319 319 321 321 322 323 323 324 324 324 324 325 324 321 320 321 321 322 322 323 324 325 325 325 326 326 326 326 324 322 322 322 321 320 320 321 323 326 328 329 329 329 329 330 330 330 330 330 330 331 331 331 331 331 331 331 330 329 329 330 330
322 317 313 310 308 307 311 314 314 314 315 315 315 316 318 321 322 321 324 325 324 322 321 322 321 321 322 322 323 324 323 323 323 323 323 323 322 321 321 321 321 321 322 324 326 327 328 328 328 328 328 327 324 321 321 321 322 321 320 321 323 325 328 329 328 328 328 329 329 329 329 330 330 330 330 330 330 329 329 329 328 327 328 329 329
323 317 314 311 308 306 309 313 314 313 313 312 312 312 314 318 320 322 324 325 322 320 321 322 322 323 324 323 323 324 322 322 322 322 322 321 321 321 320 321 321 321 321 321 323 324 325 326 326 327 326 325 323 322 322 321 322 322 322 323 323 323 324 327 328 328 328 328 328 328 328 329 329 329 329 329 329 328 328 327 327 327 327 327 327
325 320 315 311 309 307 308 311 313 312 312 312 311 310 310 312 315 319 322 323 322 321 321 322 323 323 323 323 323 323 323 322 322 322 322 321 320 320 320 320 320 320 320 321 321 321 321 321 321 321 321 320 320 322 323 323 323 323 323 324 324 324 322 324 327 328 328 328 328 328 328 328 328 328 328 328 328 327 327 326 326 326 326 326 326
326 323 317 312 310 308 308 310 312 313 312 311 310 311 311 311 313 317 320 322 323 322 321 322 323 321 321 323 324 324 323 322 322 322 322 321 321 320 320 320 319 319 319 320 321 322 321 320 319 318 318 317 318 321 323 324 324 325 325 325 325 325 324 324 327 328 328 328 327 327 328 328 328 327 327 327 327 327 327 326 326 326 326 326 325
326 324 318 313 310 309 308 311 313 312 312 311 311 312 311 312 315 319 322 324 323 320 318 321 322 320 321 322 323 324 323 322 322 322 321 321 320 319 319 319 319 318 319 319 320 321 322 322 321 321 320 319 318 320 321 322 324 325 325 325 326 326 326 325 326 328 328 328 327 327 327 327 327 327 327 327 327 327 327 327 326 326 326 326 325
326 323 319 313 310 309 309 311 312 312 312 312 313 312 311 314 319 322 324 324 322 320 319 321 322 321 321 322 322 324 324 323 323 322 322 321 319 318 318 318 318 318 319 320 320 320 321 321 322 321 321 320 320 321 321 322 324 325 325 325 325 325 325 325 325 326 328 328 327 327 327 327 327 327 327 327 327 326 326 326 326 326 326 326 325
327 324 320 315 310 309 309 311 312 311 312 313 313 312 311 315 320 322 323 321 320 321 321 322 322 322 322 322 321 322 323 323 323 322 322 321 319 317 317 317 318 319 319 320 320 321 321 321 322 322 322 322 322 322 322 322 323 324 325 325 325 325 325 325 325 326 327 327 327 327 327 327 326 327 326 326 325 325 326 326 325 326 326 325 325
328 326 323 317 311 308 309 311 312 311 312 313 313 313 312 314 317 318 319 319 321 321 322 322 322 322 323 322 321 321 322 322 323 322 322 321 319 317 317 318 318 320 320 321 321 321 322 322 322 322 322 322 322 323 323 323 323 324 324 325 324 324 324 324 325 325 326 327 326 326 326 326 326 326 325 325 324 324 325 324 323 324 325 325 325
328 327 324 317 310 309 309 310 311 311 312 312 312 312 312 313 316 318 319 320 321 321 322 323 322 322 323 322 322 322 321 321 322 322 321 320 318 316 317 318 319 321 321 322 321 321 321 322 323 323 323 323 323 323 324 324 324 324 324 324 324 323 323 324 325 325 325 326 326 326 326 325 325 325 325 325 324 323 323 322 322 322 323 323 323
Wind_Speed
13 12 10 8 6 6 7 6 7 7 8 8 9 11 10 9 8 8 8 9 9 9 10 12 13 12 10 9 9 8 10 11 12 13 12 12 11 11 10 8 7 5 5 6 6 7 8 8 10 12 11 12 13 14 17 18 18 18 17 17 16 16 15 15 16 17 16 15 15 15 14 14 12 9 8 7 7 7 6 5 4 4 7 7 7
15 14 11 9 7 7 7 7 7 8 7 7 8 10 10 9 8 8 10 10 10 11 12 13 13 11 10 9 8 8 8 9 10 11 10 10 9 8 7 6 7 8 9 11 11 11 11 11 11 12 13 14 16 16 18 21 21 21 19 18 17 16 14 14 14 13 13 14 15 15 14 12 10 8 7 7 7 7 5 4 3 5 9 8 6
15 15 11 10 8 8 9 8 8 8 7 6 8 9 9 9 9 9 11 11 10 12 14 14 12 11 10 9 9 8 8 9 9 9 9 8 9 9 10 11 11 12 13 13 14 14 13 12 11 13 16 17 18 18 19 21 22 21 21 19 17 16 15 14 14 12 11 11 11 12 13 11 9 9 8 8 6 5 4 3 3 5 8 8 7
13 14 12 11 10 10 9 8 9 9 8 6 7 8 9 9 9 10 11 11 11 13 14 13 12 11 11 10 9 8 8 9 9 9 9 10 11 13 14 14 13 13 13 14 14 15 15 15 14 17 17 18 21 21 21 20 21 21 21 20 18 17 15 16 16 15 13 11 8 8 10 9 9 8 7 6 5 6 6 7 6 7 8 7 7
13 13 12 11 11 11 10 9 10 9 8 7 8 9 9 10 10 11 12 12 12 13 12 12 12 11 11 10 9 8 8 8 10 10 11 13 15 16 15 14 14 13 13 14 14 15 15 16 16 19 18 20 24 23 22 21 21 21 20 20 19 16 14 14 15 15 16 14 10 7 6 6 8 7 6 6 6 9 10 10 9 8 6 5 5
14 13 13 12 11 10 10 9 9 9 8 7 8 9 9 10 11 12 12 13 13 12 11 11 11 11 10 10 9 9 9 9 10 11 13 15 15 15 14 14 14 12 12 12 13 14 14 15 16 19 20 22 24 24 23 23 22 21 20 19 18 15 13 13 12 12 12 13 11 9 7 6 8 9 8 8 9 10 9 9 8 7 5 5 6
14 13 12 12 11 10 10 9 10 9 9 8 8 9 9 10 11 12 12 12 12 12 11 10 10 10 10 10 10 10 10 10 12 14 14 14 14 14 13 13 12 11 11 11 12 13 13 14 16 18 19 22 24 24 23 23 23 21 20 19 18 16 14 13 11 9 8 9 10 9 8 7 8 9 9 10 10 10 9 7 5 5 5 6 6
14 13 13 12 11 10 10 9 10 10 10 9 8 10 9 10 11 13 13 12 11 12 10 10 10 10 11 11 11 11 11 12 14 15 14 13 13 13 12 12 11 10 10 10 11 12 13 14 15 17 20 23 23 23 23 23 22 21 20 19 18 16 14 13 11 7 5 7 8 10 9 9 9 7 7 8 9 9 8 6 3 4 6 6 6
13 13 14 12 11 11 11 10 10 10 10 9 9 10 10 11 13 14 15 12 12 12 10 10 10 11 12 12 12 12 12 13 15 14 13 13 14 13 12 11 10 9 9 10 10 11 12 13 14 17 20 23 23 23 23 22 22 20 19 18 17 15 13 11 9 6 5 6 7 9 10 11 11 8 4 5 8 8 8 5 3 3 5 6 5
13 13 14 12 12 12 12 11 11 11 10 10 10 11 11 13 14 15 14 13 12 12 11 10 11 12 12 12 13 13 12 12 14 13 12 13 13 13 11 10 9 9 9 9 10 11 12 13 14 16 20 23 24 23 23 22 21 20 18 17 15 13 12 11 8 5 5 6 6 7 9 11 12 10 5 3 6 7 5 4 3 3 2 4 5
13 13 14 12 12 12 12 12 11 11 11 11 11 11 12 14 15 15 14 13 13 12 11 11 11 12 13 13 13 13 12 12 11 11 12 12 12 12 11 10 10 10 10 9 9 11 12 13 13 16 20 23 23 23 22 20 19 18 18 15 13 11 11 10 7 4 6 6 6 7 10 13 14 12 7 2 4 4 3 2 3 2 1 5 6
14 14 13 12 12 12 12 12 12 11 12 12 12 12 13 14 15 15 13 13 13 12 12 12 12 12 13 13 13 13 12 11 11 11 11 11 11 11 11 10 10 10 10 9 9 11 13 13 13 16 19 22 22 22 20 19 19 18 16 13 10 8 8 8 5 4 6 7 7 8 11 13 15 13 10 4 2 2 2 2 2 2 3 5 5
15 14 13 11 11 11 12 13 13 12 12 12 12 12 12 13 14 14 13 13 13 13 14 13 13 13 13 13 13 12 12 11 10 11 11 10 11 11 11 11 10 10 10 9 10 11 13 13 13 15 18 20 21 21 20 19 18 17 14 11 8 5 5 6 4 3 5 7 8 10 12 14 15 14 11 7 2 1 1 1 1 2 3 4 5
15 14 13 11 12 12 13 14 13 13 13 12 12 12 12 12 13 13 12 12 13 13 14 14 13 13 13 13 13 12 12 11 11 11 11 10 10 11 11 10 10 9 9 10 10 11 12 13 13 14 16 18 19 19 19 18 17 16 14 11 8 5 5 6 4 2 2 4 7 10 12 13 14 14 12 9 5 1 0 0 0 1 0 3 4
14 13 13 12 13 14 13 13 13 12 13 13 13 13 13 12 12 12 12 12 12 12 13 12 12 12 12 12 12 12 12 12 11 10 10 10 9 9 9 9 10 9 9 9 9 9 11 12 13 13 14 16 17 18 18 17 16 16 15 13 9 6 5 5 4 3 2 2 5 9 11 13 14 14 13 10 8 4 1 1 2 1 1 2 3
13 12 12 13 14 14 14 13 12 12 12 13 13 13 13 12 12 12 12 12 11 11 11 10 10 10 10 11 10 11 11 11 11 10 9 8 8 7 7 8 8 8 8 8 8 8 9 11 12 12 13 14 15 16 17 17 16 16 16 14 10 7 4 3 3 3 2 2 4 9 11 12 14 15 14 11 9 7 4 2 2 2 3 2 2
12 12 12 13 14 14 14 13 12 12 13 13 13 13 13 12 12 11 12 12 11 10 10 9 9 9 9 9 9 9 10 10 10 10 9 7 7 6 6 6 7 7 6 7 7 7 8 9 10 11 12 13 14 15 15 16 15 14 14 14 12 7 3 2 3 3 2 2 4 9 11 13 15 15 14 11 9 9 4 2 2 2 2 2 2
12 12 12 13 13 13 13 13 12 12 13 14 14 14 13 13 12 12 11 11 10 9 9 9 8 8 8 8 8 9 9 9 9 9 9 8 7 5 5 5 5 5 5 5 5 6 6 7 9 10 12 12 12 14 15 15 14 12 13 15 13 7 2 1 1 2 2 2 4 8 12 14 15 16 15 12 9 7 4 2 2 2 1 1 2
12 12 13 14 13 13 13 13 13 13 13 14 14 14 13 13 12 12 11 10 9 8 8 8 8 8 7 6 6 7 8 9 9 8 8 8 7 6 5 5 5 4 4 4 4 4 5 6 7 9 11 12 12 13 14 14 12 11 12 12 12 8 3 1 1 0 1 3 4 7 11 14 15 16 16 12 8 6 5 3 3 3 2 1 2
13 13 13 13 13 13 13 13 13 13 13 13 13 14 13 13 13 12 11 9 9 8 8 8 8 8 6 6 5 5 6 7 8 7 8 8 7 7 6 5 5 5 5 4 4 3 4 5 6 8 11 12 13 13 13 13 12 11 10 9 10 8 4 2 2 2 2 4 5 7 10 13 15 16 15 11 7 6 5 4 3 3 3 3 2
14 13 12 13 13 12 12 12 13 13 12 12 12 13 13 12 12 11 10 10 9 9 8 8 8 7 6 5 5 4 4 6 7 8 7 7 7 7 7 6 5 5 5 5 4 4 3 3 4 7 10 11 12 12 13 12 12 10 9 9 10 8 6 4 4 4 3 4 5 6 9 13 15 16 13 10 7 6 6 6 4 3 4 4 4
14 13 12 13 12 12 12 11 12 12 11 11 11 12 12 11 10 10 10 10 9 9 8 8 7 6 5 4 4 3 4 5 6 8 7 7 6 6 6 6 5 5 5 5 5 5 4 3 3 6 9 10 10 10 11 11 10 9 8 8 8 7 5 5 4 3 2 3 4 6 9 12 14 14 13 9 7 6 7 7 6 5 5 6 5
14 13 13 12 11 12 12 12 12 12 11 11 10 11 11 10 10 9 9 8 8 8 7 7 6 6 5 4 4 4 5 5 5 7 7 7 7 6 6 6 5 5 5 5 5 5 5 5 4 6 8 8 8 8 8 8 8 7 7 7 6 6 6 6 4 3 2 4 5 7 10 12 13 14 13 10 8 7 7 8 7 7 7 6 6
14 13 13 12 11 11 12 13 12 12 11 11 10 10 10 10 9 9 8 7 7 7 7 6 6 6 5 5 4 4 5 5 5 5 5 6 5 5 5 5 4 3 4 4 5 5 5 5 5 5 7 5 4 5 5 5 6 6 6 6 5 6 8 8 6 4 4 4 6 8 9 10 12 13 13 11 9 8 8 8 8 8 7 7 7
13 12 12 13 12 11 12 13 12 12 11 10 10 10 10 9 9 8 6 6 6 7 7 7 7 6 5 5 5 5 5 4 4 4 4 4 4 4 4 4 3 2 2 2 3 4 5 6 5 6 7 6 4 5 5 5 5 4 4 5 5 5 8 9 8 6 5 5 7 8 8 8 10 12 13 13 11 7 8 9 8 8 7 7 7
13 13 14 13 12 11 11 11 11 11 11 10 10 10 10 10 9 8 7 7 7 7 8 8 7 6 6 5 4 4 3 3 3 3 3 3 3 4 4 3 3 3 1 0 2 3 5 6 6 6 7 7 6 6 5 5 5 3 2 4 4 5 7 8 8 7 6 5 7 7 8 8 8 10 11 12 12 9 7 9 9 7 7 7 7
13 14 13 12 11 11 10 10 11 12 12 12 12 12 11 11 10 10 11 11 11 9 8 8 7 6 5 3 2 2 1 1 1 2 2 3 4 3 4 4 4 4 3 1 1 2 4 6 6 6 6 6 6 4 3 4 4 3 3 2 2 3 4 6 7 7 7 7 8 8 8 9 8 8 9 11 12 11 9 8 8 7 6 6 6
13 13 12 12 13 13 10 12 14 15 15 15 15 14 13 13 13 13 11 11 11 10 7 6 5 5 4 2 2 1 1 1 1 1 1 3 3 3 4 4 4 4 5 4 1 2 2 5 6 6 6 6 5 4 3 3 3 3 3 3 4 4 4 5 7 9 9 9 10 10 9 10 10 9 9 9 9 10 10 9 9 8 7 6 6
12 13 13 12 14 14 13 16 17 17 16 16 16 16 16 16 15 14 12 9 8 7 6 4 4 3 2 1 1 2 1 2 2 2 1 1 2 3 3 4 4 4 5 5 3 2 2 3 3 5 6 6 5 4 4 4 4 5 6 5 5 5 6 7 8 10 11 12 13 13 12 11 11 10 10 9 8 8 9 9 9 8 8 8 7
11 12 13 14 15 17 18 19 18 18 17 17 18 18 17 16 15 15 13 11 8 7 7 6 5 3 2 4 1 2 3 3 4 5 3 2 1 1 1 3 4 5 6 6 5 4 2 2 2 4 5 6 7 7 7 6 5 7 7 6 6 7 7 8 10 12 12 13 15 15 14 13 11 11 11 10 9 8 7 8 9 9 9 9 9
12 12 13 16 19 20 20 19 17 17 18 17 18 17 16 15 14 13 12 10 7 5 5 5 5 4 3 4 4 4 5 6 6 6 6 4 2 2 3 2 3 4 5 6 7 5 2 2 2 4 5 6 7 8 9 9 7 7 7 7 7 8 8 9 11 13 13 14 15 16 15 14 12 11 11 11 11 9 8 8 8 9 9 9 10
12 12 15 20 21 20 18 16 15 15 16 17 17 16 16 15 12 10 9 8 6 3 1 1 3 4 6 6 6 5 6 8 8 7 7 6 3 3 4 4 5 4 4 6 7 6 4 3 3 5 6 7 8 8 9 10 9 7 7 9 9 9 10 10 11 12 13 13 14 15 15 15 14 12 12 12 12 11 11 10 9 9 9 9 10
13 14 19 22 20 18 18 17 16 16 16 17 17 16 14 13 10 8 7 5 3 1 0 1 2 4 6 7 7 7 8 10 10 9 9 8 6 6 7 7 6 5 4 5 6 7 7 5 5 6 6 8 8 8 9 9 8 6 7 9 9 9 10 10 10 10 11 12 12 13 14 14 13 12 12 13 13 13 13 12 12 10 10 9 9
16 18 22 22 20 20 20 19 18 17 17 16 15 14 12 11 9 7 6 3 2 2 3 3 3 6 8 7 8 10 11 11 12 12 13 11 10 10 10 9 8 7 6 6 6 7 8 7 7 7 7 7 7 8 8 7 6 6 7 7 8 9 9 9 9 9 10 11 11 12 12 13 12 11 12 12 12 13 13 14 14 12 12 11 11
17 19 21 21 21 20 19 19 18 18 16 14 12 11 10 10 9 8 6 4 4 5 5 5 6 7 9 9 10 11 12 13 13 14 15 14 13 13 14 12 11 9 8 8 8 9 9 9 9 10 10 9 8 8 9 8 7 7 7 8 9 10 9 9 9 8 9 10 11 11 11 11 11 11 11 11 12 13 13 15 15 14 14 13 13
15 18 19 20 20 20 19 18 17 17 15 13 11 9 8 8 9 9 8 7 7 6 6 8 8 8 9 10 11 12 13 14 15 15 14 14 14 14 16 15 13 11 10 9 9 10 10 10 11 12 12 12 11 10 10 11 10 8 8 8 8 8 8 8 9 9 10 10 10 10 10 11 11 11 11 12 13 13 13 14 15 15 15 14 14
14 16 18 19 20 21 20 18 18 17 15 14 11 10 8 8 9 11 11 10 9 8 8 9 9 8 9 10 12 13 14 13 12 11 9 9 10 13 16 17 15 13 12 10 10 10 10 10 10 10 11 11 11 12 12 12 11 10 9 9 8 9 9 9 9 10 11 11 10 10 10 11 12 12 12 12 13 13 14 14 14 14 15 15 15
14 14 15 17 19 19 20 18 17 17 15 13 11 9 8 7 8 10 12 11 10 9 9 10 10 10 12 14 15 14 11 8 6 4 3 4 7 10 14 16 16 15 13 12 12 11 10 10 9 9 10 10 10 10 11 11 11 11 10 10 11 10 10 10 9 9 11 11 12 11 10 12 13 12 11 12 13 13 14 14 13 14 14 14 14
16 15 14 15 16 17 17 16 15 15 14 13 12 11 9 7 6 7 10 11 11 10 9 10 11 12 13 12 10 7 5 3 2 2 3 5 4 6 10 14 16 16 15 14 13 13 12 11 10 10 11 10 9 9 10 10 10 10 10 10 9 9 8 9 9 8 9 11 12 13 13 13 13 11 11 12 13 13 13 12 12 12 12 12 12
16 15 16 15 16 16 16 16 17 17 16 15 13 10 8 7 6 6 7 7 8 7 6 7 8 8 6 4 3 2 1 2 3 3 5 6 6 5 5 7 10 13 14 14 13 13 12 12 12 12 12 10 9 10 10 9 9 9 9 8 7 6 6 8 9 8 9 11 13 13 12 11 10 11 12 11 10 11 11 10 9 9 9 7 7
15 14 15 16 16 16 18 19 18 17 15 13 10 8 7 6 6 6 6 6 7 5 5 5 4 2 2 5 5 3 2 3 3 3 5 7 7 6 4 4 5 6 8 9 9 10 10 10 11 11 11 9 9 9 9 9 9 9 7 6 4 2 2 4 4 5 7 10 11 11 11 8 7 7 8 7 7 8 8 7 7 8 7 5 5
15 14 15 15 15 16 19 18 16 14 12 10 9 7 7 7 7 6 7 7 5 4 4 5 3 2 4 6 5 2 2 3 4 4 4 6 6 5 3 3 3 3 4 4 5 6 7 8 8 9 8 6 6 6 7 8 9 8 6 4 2 5 5 6 3 4 5 6 7 7 6 5 3 3 4 4 5 5 6 6 6 6 5 5 6
15 15 15 15 15 17 18 16 13 12 11 9 8 8 9 9 9 8 8 6 4 4 4 5 4 3 5 7 5 1 1 2 3 3 4 5 5 4 4 4 3 2 2 3 4 5 6 6 7 7 7 6 5 5 7 7 8 8 6 3 3 7 7 7 7 8 9 8 7 7 6 6 4 4 6 6 7 7 6 6 6 5 5 5 6
16 16 16 17 17 17 17 16 13 12 10 8 8 9 10 10 11 10 9 7 5 5 5 5 4 3 5 7 5 2 1 1 1 2 3 3 4 4 4 4 4 3 2 3 4 5 6 7 7 7 7 8 8 7 7 7 8 7 5 4 4 7 7 5 10 10 8 7 8 9 9 9 8 6 6 7 7 7 7 6 6 5 5 4 5
17 17 17 18 18 17 17 16 14 12 10 9 9 9 9 10 11 11 11 9 6 5 6 5 5 5 6 7 5 3 2 2 2 2 3 4 4 5 5 5 4 4 4 3 3 4 6 7 7 8 8 9 9 7 6 6 7 7 6 6 5 6 9 6 9 12 8 7 8 8 8 9 9 7 6 6 7 6 6 5 5 4 3 3 4
19 18 17 18 18 17 17 16 14 12 11 10 9 9 8 9 11 11 10 9 7 6 8 7 7 7 7 6 5 3 3 3 3 3 4 5 5 5 5 5 5 5 5 4 3 3 4 5 6 6 7 7 7 6 5 5 6 6 6 6 6 6 8 9 7 10 10 9 9 8 8 9 9 8 7 7 6 5 4 4 4 3 2 2 3
20 19 17 18 18 17 17 16 14 13 11 10 9 9 9 9 10 10 10 10 7 7 7 7 6 7 6 6 5 3 3 4 3 3 4 4 5 5 5 5 5 5 5 4 4 3 3 3 3 4 4 5 5 4 5 5 5 6 6 6 6 5 6 7 7 8 10 10 9 8 8 8 8 8 7 6 5 5 4 3 3 3 2 2 2
20 20 18 17 19 19 18 17 15 13 11 10 9 8 7 8 9 9 9 9 7 6 6 6 6 5 5 6 5 4 3 4 3 3 4 4 5 5 5 5 5 5 4 4 4 4 4 3 3 3 3 3 3 2 3 4 5 5 5 4 4 4 4 4 5 6 9 12 10 8 8 7 7 8 7 6 5 5 5 4 3 2 2 2 2
19 19 17 17 19 19 19 17 15 13 11 10 8 6 6 8 9 10 10 10 8 5 5 4 5 5 5 6 6 5 4 4 4 4 4 4 5 5 4 4 4 5 4 4 4 3 3 3 3 3 3 3 2 2 2 4 5 5 5 4 4 4 4 4 4 5 8 11 11 10 9 9 9 10 8 6 5 4 4 5 4 3 2 2 2
18 17 16 17 19 19 19 18 16 14 12 10 8 6 6 8 9 10 10 10 7 5 5 4 4 4 5 7 6 5 5 4 4 4 4 5 5 5 4 4 4 4 4 4 4 3 3 2 3 3 3 3 3 2 2 4 5 6 6 6 6 6 6 6 6 6 7 9 11 11 10 9 12 13 9 6 5 4 4 5 5 4 3 3 3
18 18 18 19 20 20 20 18 16 14 12 10 9 6 6 6 7 8 9 10 8 6 7 7 6 6 7 8 7 6 5 5 4 4 5 5 4 4 4 3 3 4 4 3 3 3 3 3 2 2 2 2 2 2 2 3 4 5 6 5 6 7 7 7 7 7 7 8 11 12 11 10 12 13 11 7 5 4 6 6 6 6 5 5 6
Wind_Direction
177 166 150 146 135 124 117 111 111 114 113 116 113 118 120 119 121 115 103 91 88 92 99 103 102 100 100 103 105 107 110 115 115 117 120 119 119 117 114 111 110 98 81 72 72 89 94 100 104 104 105 109 111 109 112 110 105 106 108 112 113 108 106 110 120 125 127 126 123 120 117 113 115 118 121 127 123 111 103 104 108 121 116 108 127
163 158 147 143 138 127 119 114 115 114 111 118 118 119 119 120 120 112 101 92 91 98 101 101 100 99 98 99 101 104 106 110 112 118 121 121 120 117 113 108 100 87 84 79 76 79 81 93 103 109 116 117 112 111 114 115 114 114 116 116 113 112 114 115 117 118 121 124 127 128 123 121 125 122 116 115 110 102 94 97 100 113 117 108 110
153 151 145 143 138 126 121 118 116 112 110 119 119 121 122 118 111 102 96 95 102 105 104 102 101 98 97 97 97 98 98 99 101 107 110 111 110 110 107 103 97 91 90 83 78 73 70 75 89 115 121 116 110 111 117 122 124 123 124 122 121 120 116 109 104 105 109 113 122 129 130 131 132 125 114 108 101 89 80 98 117 111 112 110 100
151 149 147 145 138 130 125 120 115 110 113 123 119 117 116 112 105 99 98 102 107 109 109 109 106 101 97 95 94 90 89 90 95 100 102 105 107 104 101 98 94 93 88 77 74 70 68 63 79 116 120 115 114 112 114 117 120 122 125 123 120 115 108 102 97 94 88 83 97 124 134 132 130 131 117 102 81 71 80 93 107 110 106 102 99
151 151 150 147 140 137 132 121 114 113 118 127 124 115 111 109 111 111 110 111 113 112 113 111 107 102 99 98 96 92 91 94 98 101 103 107 107 102 98 94 90 92 85 74 72 67 70 63 82 114 115 117 118 115 114 112 114 116 119 118 114 109 103 98 89 86 79 71 73 86 111 122 120 119 105 90 79 85 92 93 97 100 94 82 88
156 156 151 147 143 139 131 124 118 116 119 125 126 116 112 113 117 118 114 118 120 115 112 108 102 99 100 103 104 101 102 104 105 108 110 112 108 103 98 95 94 95 86 77 73 66 72 69 88 118 118 120 120 118 117 114 113 111 112 111 111 109 103 98 85 77 69 66 66 61 71 92 99 98 91 88 91 94 95 95 96 89 80 80 87
160 155 152 147 143 137 130 130 123 120 121 125 125 118 118 119 120 117 115 120 119 112 109 103 96 95 100 105 105 102 106 109 111 116 117 115 108 103 99 96 94 93 86 78 73 68 75 74 92 122 124 123 122 119 116 113 112 108 107 104 107 108 105 104 97 85 64 62 62 49 54 66 74 84 90 92 97 98 97 100 100 96 95 96 93
160 152 152 148 143 137 133 134 128 128 129 130 125 121 122 120 118 117 119 121 114 109 106 98 92 94 100 103 101 99 106 113 118 122 119 115 110 104 100 97 91 88 86 82 78 74 81 81 95 123 128 125 122 120 117 115 113 110 108 105 106 106 104 106 107 111 88 68 58 48 51 50 45 61 91 103 110 113 114 114 101 104 108 106 106
157 152 151 148 144 139 135 136 135 134 132 132 127 124 125 122 119 117 117 117 113 110 104 95 92 93 95 96 96 97 105 114 122 124 117 115 114 109 104 100 96 91 89 86 84 80 86 89 99 123 130 127 125 123 120 118 117 114 112 111 112 112 113 114 122 138 113 80 61 52 47 39 32 35 77 116 121 123 118 105 70 79 100 104 110
155 151 149 149 146 141 138 140 140 135 132 132 126 124 126 124 121 116 114 116 118 114 106 98 95 94 92 90 92 96 102 111 119 119 112 112 114 114 112 106 102 96 91 89 87 84 90 95 104 124 132 129 127 125 123 122 120 118 116 116 118 122 128 129 141 153 112 89 67 50 32 25 23 24 39 115 123 121 116 88 37 15 55 99 108
157 154 151 150 147 141 141 143 140 135 132 130 126 126 124 122 120 117 119 124 124 116 107 99 96 94 92 90 91 96 101 107 111 112 111 108 109 112 112 105 99 95 91 90 88 86 91 97 107 126 134 132 130 128 126 125 123 121 118 120 123 133 144 142 149 138 97 80 60 36 19 19 15 11 8 56 124 117 110 80 33 8 64 110 109
156 154 151 152 148 139 139 140 138 135 129 127 129 129 126 123 122 122 126 129 123 113 105 99 96 95 93 92 92 97 102 107 109 111 111 107 108 110 106 100 95 93 90 89 87 85 90 97 109 128 136 135 134 132 130 129 125 123 121 125 130 145 155 146 142 96 72 56 44 22 12 10 4 360 356 353 140 131 102 65 45 59 103 120 111
151 151 150 154 146 135 138 138 137 136 129 128 132 133 131 128 127 128 130 127 121 114 108 104 102 100 96 94 94 96 100 107 110 112 113 111 111 111 108 105 100 96 93 91 89 87 91 97 108 129 138 137 137 136 134 131 128 126 127 131 131 147 151 142 147 82 56 44 32 12 6 0 354 352 350 341 301 177 137 63 49 49 97 117 107
150 148 146 149 140 132 138 137 138 137 132 135 138 136 132 129 130 132 133 128 122 119 113 110 108 105 100 97 96 97 99 102 107 111 112 112 113 114 112 109 105 100 98 94 91 87 89 96 105 125 141 141 139 140 137 134 133 132 135 134 120 118 128 132 146 111 54 39 22 7 2 357 355 353 348 339 315 266 172 293 295 337 79 115 109
148 143 141 143 137 133 136 137 140 140 137 140 139 134 132 133 136 137 137 130 123 119 113 111 111 107 103 100 98 97 97 99 104 109 110 111 113 115 116 112 108 104 102 98 93 89 89 95 102 117 138 149 147 145 143 140 140 139 141 137 115 97 111 124 126 103 59 29 8 0 355 352 357 356 350 340 321 295 240 246 249 223 182 137 117
146 141 139 140 140 139 139 139 139 138 137 140 137 132 133 137 139 139 137 132 125 118 112 111 111 108 104 99 96 94 95 97 100 105 109 112 113 116 118 114 111 108 108 106 101 94 91 94 100 110 128 150 157 153 149 146 145 144 145 142 124 103 97 101 96 86 57 29 2 356 350 349 353 354 349 339 324 297 254 212 217 175 174 171 141
144 142 143 142 143 144 143 140 138 137 136 135 133 130 134 136 136 138 136 131 125 119 115 114 112 106 101 96 96 94 95 97 99 103 108 113 115 118 121 118 115 111 110 113 109 99 94 95 99 106 117 137 157 162 158 152 150 147 148 148 143 129 96 81 77 72 62 46 8 359 352 347 347 350 346 336 324 298 264 166 167 158 169 189 161
141 142 145 144 144 144 142 138 137 135 131 130 129 131 136 138 136 137 136 134 127 121 114 108 105 99 95 94 98 101 102 103 104 108 110 115 119 125 131 133 131 123 114 110 111 103 95 94 98 105 114 123 143 161 164 160 158 154 152 155 156 156 128 106 97 67 54 27 3 356 349 342 342 345 342 332 321 298 266 168 180 200 197 195 168
139 142 144 146 146 143 139 136 136 130 126 126 128 133 138 140 138 137 138 137 131 122 113 108 104 101 101 101 103 107 109 109 108 110 116 120 123 126 134 144 151 147 137 126 121 113 101 97 100 105 111 114 123 143 157 161 161 152 148 155 162 170 163 175 238 262 20 358 349 346 340 337 338 339 337 329 315 292 265 227 196 198 202 203 189
144 145 143 145 145 143 141 137 136 128 126 127 129 133 137 140 141 140 137 133 131 127 122 119 114 111 113 113 113 112 113 114 111 111 116 124 131 131 132 137 150 159 159 155 143 133 118 104 102 108 111 112 115 125 140 150 152 144 142 147 156 164 160 178 250 277 337 340 335 336 332 330 333 333 331 325 306 282 262 252 229 202 196 203 198
147 147 143 144 143 145 144 139 135 128 128 128 131 133 132 135 139 140 136 135 136 133 129 124 119 115 116 119 118 118 122 121 117 117 118 123 134 138 139 137 138 150 162 169 164 158 145 125 110 114 116 115 115 120 131 141 148 149 148 145 148 157 170 198 245 277 306 337 339 336 330 326 329 330 329 321 299 274 255 255 251 222 207 211 202
146 147 145 146 144 145 143 139 133 128 129 129 130 129 126 127 130 135 134 136 135 130 130 129 128 122 125 137 143 149 138 130 121 117 118 122 127 134 141 146 144 144 153 165 173 175 171 166 139 127 125 119 117 120 128 138 148 157 156 150 152 160 188 215 233 265 307 11 358 337 331 330 332 335 334 322 297 273 255 251 250 236 225 220 211
149 151 150 149 145 145 142 138 132 129 131 131 131 126 124 124 123 125 127 133 134 135 140 140 140 132 133 143 155 165 147 137 126 115 115 117 117 120 129 138 147 150 149 157 170 180 185 187 173 150 139 127 121 123 126 133 142 151 156 159 168 179 211 238 244 272 353 18 351 333 335 338 341 345 344 334 304 275 258 247 245 241 233 226 220
153 158 154 149 147 147 142 137 134 132 132 133 134 128 124 124 124 127 130 135 136 137 137 132 132 128 131 134 133 146 146 140 128 120 115 113 108 102 108 117 129 147 151 159 168 176 187 190 191 177 166 162 152 149 145 142 144 144 142 150 167 188 213 240 261 288 343 355 335 330 335 342 347 353 354 347 324 278 256 252 251 247 244 241 232
155 160 157 156 156 153 143 137 136 135 134 137 139 134 128 126 129 135 139 137 133 129 121 118 116 115 123 127 124 131 141 135 121 115 108 102 93 81 84 98 102 111 140 174 180 179 185 185 192 192 190 198 200 195 190 177 166 154 138 136 143 174 203 231 260 293 331 339 328 324 327 339 349 356 356 354 345 299 260 261 269 266 262 257 249
159 162 161 162 162 152 140 138 141 140 137 138 138 134 131 127 128 130 125 118 119 118 115 116 115 113 116 119 117 117 132 136 119 110 97 78 67 60 51 53 56 50 54 241 210 196 197 193 196 198 198 202 203 208 207 197 184 178 174 148 146 169 198 232 260 289 314 323 322 320 316 327 344 354 356 355 354 338 296 279 286 288 279 272 266
159 162 161 160 160 149 141 143 141 137 132 130 132 132 129 125 122 119 114 109 109 109 108 112 116 114 110 117 125 113 119 137 129 123 102 74 59 49 41 34 25 16 7 353 218 201 202 206 211 214 216 219 222 230 241 236 215 204 216 212 207 196 207 244 269 288 301 310 312 314 312 315 329 346 353 352 351 347 335 318 315 311 298 293 287
160 162 161 153 155 155 150 142 134 130 128 126 129 130 127 122 120 117 114 113 114 112 111 112 114 115 111 125 158 153 159 189 228 190 106 79 67 49 40 35 29 17 3 355 273 222 208 214 222 230 238 243 248 258 272 270 255 268 271 264 264 247 241 262 284 295 302 306 304 307 309 307 311 323 337 343 345 343 340 335 329 324 316 312 310
162 165 167 158 159 165 158 144 136 133 132 131 131 130 127 125 123 122 120 123 126 129 140 138 120 114 78 52 162 180 205 230 254 263 265 68 70 54 36 24 20 13 1 353 320 282 265 247 246 253 262 267 274 278 283 290 285 291 290 274 267 276 287 294 301 299 299 302 301 303 304 303 302 307 317 323 327 331 333 332 329 327 323 320 320
162 167 174 167 162 161 154 146 141 139 139 139 139 136 133 133 132 130 132 139 146 153 160 162 158 159 344 347 307 236 258 264 260 262 259 258 283 341 0 3 358 354 349 342 332 317 294 304 310 300 303 300 299 301 302 302 296 291 284 276 275 290 307 312 309 303 299 298 298 299 298 299 298 296 302 308 309 311 318 322 323 324 322 323 323
162 164 169 163 155 152 149 148 145 143 143 144 143 142 142 144 144 143 147 155 163 167 168 175 181 200 251 302 303 285 281 280 267 262 261 256 269 288 289 300 314 327 332 326 326 328 324 328 329 319 315 310 305 309 315 310 304 297 282 280 284 290 304 308 305 302 300 298 295 294 294 295 296 292 292 298 298 299 304 306 309 314 317 320 321
154 157 160 158 155 152 151 152 152 149 148 147 146 147 148 151 151 150 157 166 170 169 179 225 220 229 232 246 270 280 278 274 264 257 256 253 257 277 279 278 277 283 303 315 317 314 305 291 299 305 303 302 297 297 306 306 303 301 290 290 294 298 302 300 298 299 302 301 295 291 291 292 293 292 291 292 291 291 295 298 298 299 303 309 313
150 157 161 159 159 158 154 155 157 158 157 156 156 157 156 154 151 149 155 157 155 153 348 236 230 244 238 240 252 255 258 262 264 266 266 263 254 247 256 266 271 271 273 288 299 298 288 273 279 293 299 305 305 297 296 302 300 297 299 296 300 309 309 300 297 300 304 304 298 291 289 289 291 294 294 292 291 288 288 292 294 293 294 298 303
154 160 164 162 162 160 155 156 157 160 163 163 164 165 163 162 162 166 166 162 191 229 246 230 242 268 266 261 264 263 262 264 268 273 273 270 258 247 250 256 260 260 252 257 271 279 272 261 264 277 288 295 307 307 298 306 303 291 298 294 297 309 307 303 301 303 304 300 296 291 290 291 291 294 297 296 291 287 286 286 286 289 292 292 293
158 161 167 167 165 163 160 160 160 163 165 167 170 172 174 174 177 184 184 188 215 231 242 244 251 268 267 263 266 267 269 270 272 276 274 270 262 251 247 247 249 250 244 245 254 262 262 259 261 268 273 269 275 294 298 307 314 308 308 298 293 296 293 294 295 299 304 298 292 290 291 292 293 298 301 298 290 284 282 280 280 281 282 284 283
162 161 169 171 171 170 168 167 166 168 171 177 185 194 198 190 186 193 196 200 216 229 236 240 246 255 260 258 261 267 274 278 281 284 279 271 262 248 240 239 239 241 237 235 243 254 258 259 263 264 266 264 262 272 283 293 303 306 305 295 286 282 278 277 279 284 289 288 288 291 295 296 297 298 295 291 287 285 285 286 285 279 276 280 283
169 165 169 174 177 179 180 181 180 180 185 192 201 206 204 195 192 196 201 207 216 229 240 247 254 262 272 275 276 283 286 286 285 283 277 269 259 242 235 234 234 235 234 237 247 258 262 257 257 261 266 270 269 270 272 276 285 289 289 290 289 287 280 274 274 278 283 287 288 291 300 299 291 287 288 291 293 293 293 295 293 285 281 283 286
176 174 174 177 179 181 185 187 187 188 190 193 197 192 187 187 190 198 208 217 223 230 243 252 256 266 279 285 285 287 281 276 275 274 281 282 262 241 233 232 234 236 236 242 252 262 268 259 253 259 265 272 277 275 270 268 274 281 285 294 303 303 292 285 286 284 289 296 292 285 282 280 281 287 292 293 296 298 298 298 296 291 289 287 288
175 176 179 182 182 181 180 179 180 179 178 181 182 179 178 178 180 199 211 219 232 243 253 255 260 270 281 286 285 278 259 260 297 347 349 332 311 266 245 238 238 239 242 247 254 260 264 259 253 256 259 267 276 277 275 270 272 279 286 294 305 308 299 293 293 290 293 292 286 283 279 278 286 295 292 289 295 299 299 305 307 302 296 291 293
174 175 179 183 183 181 177 174 175 175 175 179 181 182 184 182 181 197 211 221 240 259 275 269 271 282 295 326 340 328 271 326 357 351 343 349 353 335 294 265 253 248 247 248 251 252 252 251 252 256 259 265 270 271 272 269 270 277 285 293 293 297 306 299 287 281 280 281 284 289 291 291 294 294 291 295 304 305 304 310 321 323 314 301 296
177 177 179 180 179 179 178 177 178 179 181 184 187 192 198 203 201 203 221 242 254 272 299 293 289 309 16 27 16 359 328 335 340 319 318 332 341 344 342 322 301 281 265 256 252 251 249 249 251 258 263 266 265 262 259 259 267 271 276 290 275 246 359 342 293 286 285 289 300 304 305 304 300 303 302 305 317 322 322 317 321 327 323 310 290
184 182 180 180 179 180 182 182 184 185 187 190 194 200 211 224 227 219 227 246 255 264 285 286 292 350 15 8 4 349 332 333 327 317 313 320 329 341 348 332 320 318 303 285 273 267 262 256 256 261 266 265 259 255 250 251 261 261 256 265 198 157 106 69 49 24 8 347 337 324 324 327 320 3 13 15 12 6 358 342 342 339 324 316 305
193 188 183 183 183 185 188 190 191 190 189 192 200 210 220 225 230 225 222 236 246 239 251 259 273 327 348 344 340 308 325 333 317 326 327 325 331 341 347 344 334 318 299 284 277 271 264 259 257 259 263 264 264 262 256 254 256 255 250 244 180 165 136 80 50 33 27 29 35 31 34 38 37 38 36 41 39 35 27 13 12 6 348 336 322
197 194 187 188 190 190 194 197 196 191 188 196 209 218 223 223 226 224 218 229 244 248 262 256 251 284 311 316 315 290 308 344 329 340 347 341 341 342 344 345 346 341 323 295 270 261 259 260 258 255 260 265 271 270 256 252 254 254 249 226 189 184 176 103 62 47 26 28 45 44 48 52 50 48 41 42 42 38 29 20 21 18 7 354 328
199 199 193 192 193 192 193 194 191 189 191 202 213 219 222 220 220 219 219 226 238 257 273 256 248 281 297 297 296 292 311 354 19 359 352 352 349 352 352 347 346 343 337 328 295 270 262 262 263 263 266 267 271 268 247 241 244 246 241 222 199 191 194 165 89 69 45 31 42 40 50 58 57 60 54 45 38 29 20 13 17 26 21 355 325
198 202 201 197 196 193 191 190 189 191 195 202 210 215 216 212 211 215 218 221 228 250 259 246 251 282 293 279 274 292 312 338 7 353 343 350 352 355 357 352 350 342 338 338 329 307 281 270 270 272 276 273 270 266 250 241 238 237 234 227 220 200 188 181 136 98 75 54 55 60 63 63 64 65 60 55 50 40 32 20 11 9 10 344 316
196 200 204 203 199 194 192 191 191 193 195 199 207 210 208 206 208 213 216 219 227 242 238 230 250 278 285 271 266 280 304 322 350 354 342 342 346 352 352 351 354 351 347 340 325 310 296 288 281 277 279 276 270 268 256 245 239 237 235 230 228 215 192 186 172 141 112 86 75 77 75 72 73 69 63 67 74 73 66 56 40 18 355 328 309
194 197 202 206 202 196 194 193 193 194 194 199 206 208 206 207 212 212 209 213 224 231 218 226 263 284 280 268 263 264 282 308 328 340 337 332 337 345 349 352 354 354 350 338 320 308 306 307 304 293 282 273 264 257 241 227 226 229 231 236 238 238 226 201 194 180 147 124 110 100 94 92 90 86 85 89 84 74 73 69 59 51 23 333 315
195 198 202 209 205 199 197 196 196 196 194 202 210 207 199 203 210 211 209 212 217 222 220 241 270 280 274 266 265 262 268 293 307 313 313 315 325 333 342 349 352 355 353 346 335 323 316 306 296 289 275 264 252 234 210 199 203 206 209 221 229 232 230 212 207 203 168 146 139 132 124 121 111 104 106 108 96 78 77 70 49 40 30 350 332
197 204 211 217 211 204 201 199 200 199 197 208 215 209 202 201 204 204 207 212 213 214 215 222 238 246 256 261 262 258 257 275 287 293 296 299 310 319 328 341 352 4 7 5 5 357 340 320 301 290 276 264 249 237 215 189 188 193 196 204 212 214 215 212 209 205 186 161 149 144 146 146 129 120 119 110 96 83 71 60 53 55 55 48 44
201 210 216 218 212 206 205 203 204 204 202 210 216 215 214 210 208 205 201 204 210 214 209 208 218 228 243 257 259 252 253 266 271 275 283 286 295 306 310 325 355 12 16 13 17 17 14 13 359 338 313 286 254 238 214 179 176 185 188 188 197 204 210 209 206 204 194 170 155 147 147 151 139 129 125 111 88 75 67 56 60 72 75 72 69